Volver al catálogo

THOR ABLESTAR DEB

ActivoLEO
NORAD 561·DEBRIS·🇺🇸 United States

Lanzado Jun 29, 1961 desde Cape Canaveral Space Force Station

Loading…

Próximos Pases (próximas 24 horas)

TLE

ActualizadoSource: Space-Track

Época: Sep 14, 2026, 10:23 UTC

1 00561U 61015GT  26257.43299981  .00000598  00000-0  23619-2 0  9997
2 00561  67.7558 172.3063 0630188 237.1747 234.0292 12.41558789952201

Sigue THOR ABLESTAR DEB en tiempo real con AllMySat

Download on the App Store